This is the latest recevied weather packets stored in our database for station/object NR0A-4. If no packets are shown the sender has not sent any weather packets the latest 10 day(s).
| Time | Temp. | Humidity | Pressure | Rain* | Wind** | Luminosity | Snow |
|---|---|---|---|---|---|---|---|
| 1778101505 | 15° C | 26% | 1016.1 hPa | 0 mm | - | 838 W/m² | - |
| 1778101204 | 14.44° C | 28% | 1016.3 hPa | 0 mm | - | 884 W/m² | - |
| 1778100904 | 14.44° C | 28% | 1016.3 hPa | 0 mm | - | 381 W/m² | - |
| 1778100604 | 15° C | 27% | 1016.4 hPa | 0 mm | - | 374 W/m² | - |
| 1778100304 | 15° C | 26% | 1016.4 hPa | 0 mm | - | 276 W/m² | - |
| 1778100005 | 15.56° C | 28% | 1016.5 hPa | 0 mm | - | 988 W/m² | - |
| 1778099705 | 15° C | 28% | 1016.5 hPa | 0 mm | - | 911 W/m² | - |
| 1778099405 | 15° C | 27% | 1016.6 hPa | 0 mm | - | 269 W/m² | - |
| 1778099105 | 15.56° C | 28% | 1016.5 hPa | 0 mm | - | 1014 W/m² | - |
| 1778098805 | 15.56° C | 29% | 1016.6 hPa | 0 mm | - | 408 W/m² | - |
| 1778098504 | 15.56° C | 27% | 1016.7 hPa | 0 mm | - | 276 W/m² | - |
| 1778098204 | 15.56° C | 28% | 1016.7 hPa | 0 mm | - | 439 W/m² | - |
| 1778097905 | 15.56° C | 30% | 1016.8 hPa | 0 mm | - | 911 W/m² | - |
| 1778097604 | 15.56° C | 28% | 1016.8 hPa | 0 mm | - | 902 W/m² | - |
| 1778097305 | 15° C | 29% | 1016.7 hPa | 0 mm | - | 912 W/m² | - |
| 1778097004 | 15° C | 27% | 1016.9 hPa | 0 mm | - | 891 W/m² | - |
| 1778096704 | 14.44° C | 28% | 1017 hPa | 0 mm | - | 912 W/m² | - |
| 1778096405 | 15° C | 30% | 1017 hPa | 0 mm | - | 946 W/m² | - |
| 1778096105 | 15° C | 31% | 1017 hPa | 0 mm | - | 483 W/m² | - |
| 1778095804 | 14.44° C | 32% | 1017 hPa | 0 mm | - | 954 W/m² | - |
| 1778095504 | 13.89° C | 31% | 1017.1 hPa | 0 mm | - | 976 W/m² | - |
| 1778095205 | 14.44° C | 30% | 1017.1 hPa | 0 mm | - | 237 W/m² | - |
| 1778094905 | 14.44° C | 28% | 1017.2 hPa | 0 mm | - | 322 W/m² | - |
| 1778094605 | 15° C | 30% | 1017.1 hPa | 0 mm | - | 1076 W/m² | - |
| 1778094305 | 15° C | 32% | 1017.2 hPa | 0 mm | - | 1035 W/m² | - |
* Rain latest hour (hover to see other rain measurements)
** Current wind speed in m/s (hover to see current wind gust speed)